sat.trackr.live / text

‹ back to catalog

STARLINK-11729 [DTC]

NORAD 64073 · 2025-107K

PAYLOAD ACTIVE UNKNOWN

§ Identity

Operator
Country
US
Launch date
2025-05-21
Launch site
AFETR
Launch vehicle
Mass (kg)
RCS (m²)

Purposes: comms

External: N2YO · Heavens-Above · Gunter

§ Orbital elements

Epoch: 2026-05-24T23:52:02.340192Z

Period
91.66 min
Inclination
43.0002°
Eccentricity
0.0001122
Mean motion
15.71027347 rev/d
Perigee alt
355.2 km
Apogee alt
356.7 km
Semi-major
6,734.1 km
B*
1.5776e-3
RAAN
358.7534°
Arg perigee
44.8214°
Mean anomaly
315.2744°
Rev number
5,929

§ Raw data

STARLINK-11729 [DTC]1 64073U 25107K   26144.99447153  .00208784  00000+0  15776-2 0  99902 64073  43.0002 358.7534 0001122  44.8214 315.2744 15.71027347 59293

JSON: /api/v1/satellites/64073 · /tle

For live sub-satellite position, see the globe view (requires WebGL).

§ Visibility from observer

Set your observer location to see the next 7 days of passes ≥ 10°. The values pass through the URL so the page stays shareable.

No JS? Fill the form by hand. The geolocation button needs JavaScript.